Flag for Mexico Weather past 2 weeks in Matamoros, Tamaulipas, Mexico

Now
88 °F

Scattered clouds.


Feels Like: 103 °F
Forecast: 79 / 90 °F
Wind: 10 mph from South

Location: Brownsville / South Padre Island International Airport

Current Time: Sep 19, 2014 at 11:13:28 AM

Latest Report: Sep 19, 2014 at 10:53 AM


Visibility: 10 mi

Pressure: 29.85 "Hg

Humidity: 75%

Dew point: 79 °F

Location of MatamorosLocation

Historic Weather in Matamoros — Graph

°F

Matamoros temperature yesterday

Maximum temperature yesterday: 90 °F (at 12:53 PM)
Minimum temperature yesterday: 78 °F (at 12:53 AM)
Average temperature yesterday: 83 °F

Past Weeks' High & Low Weather Summary

 TemperatureHumidityPressure
High93 °F (Sep 10, 1:53 PM)100% (Sep 4, 11:01 PM)30.08 "Hg (Sep 4, 11:01 PM)
Low73 °F (Sep 15, 4:53 AM)51% (Sep 8, 2:53 PM)29.76 "Hg (Sep 18, 3:53 PM)
Average81 °F85%29.94 "Hg
* Reported Sep 4 9:53 AM — Sep 19 9:53 AM, Matamoros, Weather by CustomWeather, © 2014

Note: Actual official high and low records may vary slightly from our data, if they occured in-between our weather recording intervals... More about our weather records

Advertising

Matamoros weather history for previous 24 hours

 ConditionsComfort  
Time TempWeatherWind HumidityBarometerVisibility
9:53 AM
Sep 19
86 °FBroken clouds.12 mph80%29.85 "Hg10 mi
8:53 AM82 °FPassing clouds.6 mph91%29.84 "Hg8 mi
7:53 AM79 °FFog.3 mph94%29.82 "Hg4 mi
6:53 AM78 °FFog.No wind96%29.81 "Hg4 mi
5:53 AM78 °FFog.No wind93%29.80 "Hg3 mi
3:53 AM79 °FFog.3 mph94%29.81 "Hg4 mi
2:53 AM79 °FFog.5 mph94%29.82 "Hg5 mi
1:53 AM79 °FFog.5 mph97%29.84 "Hg6 mi
12:53 AM81 °FPassing clouds.5 mph91%29.85 "Hg8 mi
11:53 PM
Sep 18
81 °FClear.6 mph91%29.85 "Hg9 mi
10:53 PM81 °FClear.6 mph91%29.84 "Hg10 mi
9:53 PM81 °FPassing clouds.5 mph88%29.83 "Hg10 mi
8:53 PM81 °FClear.5 mph88%29.80 "Hg10 mi
7:53 PM82 °FSunny.7 mph85%29.79 "Hg10 mi
6:53 PM85 °FSunny.9 mph72%29.78 "Hg10 mi
5:53 PM87 °FSunny.14 mph69%29.77 "Hg10 mi
4:53 PM89 °FPassing clouds.16 mph65%29.76 "Hg10 mi
3:53 PM90 °FPassing clouds.16 mph66%29.76 "Hg10 mi
2:53 PM90 °FScattered clouds.16 mph66%29.79 "Hg10 mi
1:53 PM90 °FPassing clouds.17 mph63%29.82 "Hg10 mi
12:53 PM90 °FPassing clouds.17 mph63%29.84 "Hg10 mi
11:53 AM89 °FPassing clouds.17 mph68%29.86 "Hg10 mi
Weather by CustomWeather, © 2014

See weather overviewHow to use our weather pages